Vorticity
7 7 7 5 5 4 5 5 5 8 11 10 10 10 10 10 9 8 9 9 9 8 8 8 8 8 9 9 8 7 7 8 9 10 9 10 12 9 7 7 7 9 11 12 12 17 24 22 15 10 9 11 15 16 14 13 13 15 18 15 11 12 14 12 12 16 13 5 14 18 2 5 19 13 10 21 28 20 4 -2 4 7 7 6 4
7 7 6 5 6 7 5 4 7 10 10 10 12 12 12 10 6 4 4 5 8 10 9 8 7 8 8 9 9 8 9 9 10 11 10 10 10 8 7 9 10 9 10 10 16 27 23 7 1 9 15 16 16 16 15 15 15 16 18 17 13 12 14 17 14 12 17 12 8 16 13 6 12 13 11 18 26 23 9 -1 2 5 7 7 4
7 8 8 7 8 9 4 3 9 11 9 12 15 13 12 9 7 5 3 1 3 6 7 7 7 8 9 9 10 9 9 10 11 10 11 10 9 8 7 9 11 10 9 10 14 21 15 5 11 22 22 16 14 16 17 17 16 16 17 17 15 15 14 16 17 13 15 15 8 8 16 16 10 5 12 22 24 22 13 4 5 7 6 7 4
6 8 9 8 5 4 3 5 10 12 12 14 13 10 9 9 9 9 6 4 4 5 7 8 8 9 10 10 10 10 9 10 11 10 10 9 8 8 8 10 12 10 10 13 15 17 16 18 23 22 16 14 15 16 17 16 16 15 17 18 16 16 16 15 17 17 16 17 13 6 7 18 18 3 4 22 27 23 16 4 2 7 7 11 10
5 5 9 10 3 0 4 8 10 12 14 14 9 7 9 11 10 9 8 7 7 8 8 8 9 9 10 10 9 9 8 9 10 10 9 8 7 8 9 12 14 12 12 16 17 16 16 19 21 17 14 15 14 14 13 13 16 16 15 18 19 17 17 16 14 16 18 18 19 14 4 10 23 12 -2 9 24 28 25 9 -5 -1 6 10 12
6 8 15 10 -2 -0 8 10 12 13 13 10 6 6 9 10 8 6 6 6 7 7 7 7 9 9 10 9 8 8 8 9 9 9 8 9 9 11 13 14 15 15 16 17 18 18 18 17 18 16 14 13 11 11 13 13 16 19 18 19 21 20 18 17 14 13 16 18 20 23 14 6 15 18 5 5 20 29 30 21 3 -1 8 7 5
7 11 13 1 -6 5 12 10 9 11 10 7 5 7 8 6 5 5 6 7 8 8 8 9 10 10 8 8 8 8 8 9 10 10 9 9 11 14 17 16 14 15 16 15 18 21 18 16 16 15 11 10 10 10 12 15 17 21 24 23 22 22 21 18 13 11 16 19 19 23 22 10 6 13 12 9 19 27 27 25 14 2 6 11 10
14 14 3 -8 -1 11 12 9 8 7 7 7 6 7 6 4 4 5 6 8 9 9 10 10 9 9 9 8 9 9 10 11 11 10 8 8 13 17 18 13 10 13 14 14 19 21 19 17 14 12 10 8 9 10 11 15 18 21 26 26 23 24 23 19 14 14 19 21 20 20 20 15 7 7 10 9 14 24 26 26 21 8 5 12 13
18 13 -5 -11 3 11 9 9 9 7 8 8 7 6 5 3 4 5 7 9 9 8 8 9 9 9 8 8 9 9 12 12 8 8 9 12 16 17 16 14 11 14 17 14 16 19 18 16 12 10 10 7 6 8 9 12 16 21 24 25 23 21 20 22 20 20 24 23 20 19 18 16 12 9 13 14 12 18 23 25 25 18 8 3 3
13 6 -5 -5 4 9 9 7 6 8 9 8 8 5 3 3 4 6 8 9 9 8 8 8 9 10 9 8 8 9 12 11 7 10 13 14 17 16 18 19 13 16 20 13 13 19 17 13 11 8 7 7 6 4 5 9 14 21 24 24 24 18 14 25 29 23 26 26 18 19 21 15 12 13 16 17 15 14 17 20 26 23 10 4 7
7 2 -5 -1 7 8 7 5 6 9 8 7 6 3 2 4 4 7 10 9 9 9 8 9 9 10 10 9 9 10 13 10 8 12 15 15 17 17 21 21 12 13 20 14 11 18 15 9 9 8 6 8 8 5 5 9 11 18 24 22 22 16 13 30 36 20 23 28 17 18 26 11 1 9 16 15 15 16 13 16 30 29 13 13 18
1 5 -0 3 10 7 5 6 7 8 7 6 4 2 4 4 5 10 11 9 12 12 9 9 10 11 11 10 9 11 12 10 9 12 16 17 18 18 22 24 15 12 18 16 13 14 12 9 7 7 8 10 12 11 10 10 8 14 23 22 18 13 15 37 42 17 15 27 18 17 30 16 -2 4 12 10 13 19 14 9 24 32 20 16 18
-2 7 6 6 9 6 6 7 6 7 6 5 4 4 4 4 7 11 9 12 18 12 5 7 10 11 11 9 10 12 10 8 10 14 18 19 17 18 24 25 17 15 18 16 12 10 10 10 8 9 13 13 13 13 9 7 7 13 23 24 17 12 18 38 43 18 8 22 21 19 29 23 5 3 8 9 14 22 18 7 13 26 25 17 14
7 7 6 7 7 6 7 7 5 6 6 5 5 4 3 5 9 10 10 17 17 6 2 9 11 11 11 10 14 13 7 7 14 18 20 19 17 20 26 23 15 16 19 14 11 11 11 11 11 13 13 7 4 5 4 6 9 16 25 24 15 14 23 36 41 22 5 14 22 23 27 23 10 3 4 8 15 20 19 12 5 11 20 20 18
8 5 6 6 6 6 7 7 5 5 6 5 4 3 4 7 8 8 11 16 14 7 8 12 10 9 10 11 13 9 4 11 19 19 17 18 17 21 25 20 13 15 18 15 11 12 10 7 5 6 7 6 5 6 7 8 11 18 28 25 12 14 30 40 39 25 9 10 20 25 27 24 12 2 1 10 19 19 17 15 2 -6 3 16 23
2 6 8 5 5 7 7 6 4 4 6 5 4 5 6 7 7 7 12 17 15 11 10 9 8 9 10 10 9 7 9 17 18 15 16 16 16 22 24 16 10 13 16 14 12 11 10 9 7 5 7 10 9 9 8 8 13 21 30 25 11 15 37 46 38 26 13 12 20 25 28 25 14 2 1 13 24 21 15 13 6 -4 -4 6 18
2 7 8 4 6 7 6 5 4 4 6 5 5 5 6 9 8 8 15 18 12 8 9 10 9 8 8 9 8 9 14 19 17 15 16 13 13 20 23 14 10 13 14 11 9 8 10 12 11 9 10 9 7 8 8 8 14 24 30 24 12 19 42 48 36 24 17 16 23 27 27 25 17 6 2 12 21 21 15 13 12 8 2 5 15
4 6 6 5 7 7 6 6 6 6 5 5 6 6 8 11 6 9 20 17 6 6 11 9 7 10 10 7 8 13 16 16 16 15 14 13 15 20 20 13 10 11 11 9 9 7 7 8 9 9 10 8 6 7 8 7 13 25 29 22 14 24 46 48 33 23 20 20 25 26 21 21 19 12 11 17 20 18 14 13 15 14 6 5 13
3 5 4 4 6 6 5 5 6 8 7 7 9 7 9 9 6 14 23 14 4 10 12 8 10 12 7 5 11 16 13 13 15 13 11 16 22 23 19 13 11 11 7 8 11 11 7 5 7 9 9 8 6 7 7 7 14 26 29 19 14 28 46 46 32 23 21 21 23 21 16 14 15 16 17 18 16 16 17 16 16 15 10 7 12
2 4 5 7 9 6 4 6 8 8 7 8 8 7 9 8 10 18 19 8 7 13 13 11 11 7 8 16 21 14 9 15 19 13 13 21 25 24 19 13 12 11 8 9 13 12 9 7 6 8 9 8 8 7 7 8 13 23 28 18 15 31 46 43 31 24 21 20 19 18 17 14 13 15 16 12 9 10 15 20 20 15 10 10 16
6 10 11 9 9 9 9 12 12 9 8 8 8 10 9 7 13 20 14 7 11 15 12 8 5 7 14 18 14 5 3 10 11 6 13 26 26 21 17 13 12 10 6 8 12 9 9 9 6 7 10 10 8 7 7 8 10 17 25 21 20 35 45 38 28 25 22 19 17 15 15 14 12 13 13 11 8 4 5 14 22 20 13 13 19
10 15 14 10 12 13 10 8 5 4 9 11 11 12 9 9 20 23 9 2 9 13 9 4 3 11 13 5 2 1 -0 5 6 3 11 20 18 18 17 11 9 8 4 6 8 5 7 10 7 8 11 10 8 7 7 9 7 11 22 24 24 36 43 33 26 28 24 16 15 15 14 13 11 11 13 13 10 7 6 10 17 17 14 14 17
9 12 11 12 16 14 6 -2 -4 3 12 13 12 12 8 10 19 13 -3 -1 11 14 9 6 6 11 12 7 6 5 5 10 14 15 20 16 7 15 21 12 5 8 9 9 6 4 8 11 8 8 12 11 7 5 8 10 6 7 19 26 25 33 42 34 24 27 27 19 15 15 12 10 9 7 10 12 10 9 13 15 15 12 10 10 13
11 12 12 14 12 5 -2 -5 1 11 14 11 10 11 10 11 14 7 0 8 15 11 6 7 11 12 12 11 8 6 9 9 11 26 37 22 6 14 21 11 5 10 12 11 7 6 10 11 7 8 12 11 5 2 6 11 8 5 13 26 27 26 36 40 28 20 26 27 21 17 12 8 8 7 5 7 9 9 12 15 15 13 10 7 7
10 10 9 13 10 -1 -5 2 10 12 7 7 12 13 11 12 13 10 10 13 12 9 7 10 12 11 11 10 8 9 12 8 15 35 34 8 2 20 24 14 9 9 8 9 10 9 10 10 7 7 11 10 4 4 8 9 9 7 7 19 29 23 26 44 42 21 19 26 24 21 18 10 6 10 10 9 11 11 11 15 17 15 13 10 8
7 4 3 9 7 -5 -5 5 7 3 6 11 14 12 10 12 11 11 13 12 10 10 10 9 11 11 9 10 9 9 9 11 25 39 20 -12 -12 10 21 19 14 10 8 10 12 11 10 9 7 6 9 11 7 9 11 6 7 11 6 11 28 25 17 38 54 36 20 23 24 20 21 15 6 9 15 12 12 13 12 14 18 17 13 11 11
4 1 -4 -2 -5 -10 -3 3 0 6 14 12 8 8 10 12 12 12 13 11 9 10 10 10 12 11 9 11 10 9 12 18 27 34 25 4 -3 6 15 16 12 10 11 12 12 12 10 9 8 6 9 13 11 10 12 8 6 12 9 7 21 28 19 29 50 44 26 28 29 20 19 20 11 8 14 12 9 13 15 14 18 19 16 14 14
2 1 -5 -7 -5 -1 6 7 5 12 12 5 7 14 14 13 14 14 12 11 10 12 11 11 12 10 8 10 10 7 15 24 27 29 28 21 15 14 16 13 9 10 12 12 12 12 10 8 8 7 8 11 11 10 11 10 6 9 11 8 13 25 24 20 30 37 34 35 33 19 16 22 17 8 11 12 8 8 12 14 15 16 14 13 15
5 4 -1 1 6 7 8 9 9 9 8 9 15 16 13 14 16 13 11 10 10 11 12 12 12 9 8 10 9 10 19 28 28 28 27 21 16 14 13 11 10 10 10 11 12 11 9 7 7 9 9 10 12 12 9 9 8 6 10 11 9 17 26 22 19 28 37 40 34 20 13 18 20 12 8 9 9 9 8 9 11 12 13 12 12
3 2 3 9 10 6 6 9 8 8 12 15 14 11 13 16 14 10 10 10 11 13 14 13 11 8 8 9 9 14 25 28 24 22 21 16 12 11 10 11 12 11 9 12 11 8 8 7 6 9 12 11 13 14 9 8 9 6 8 12 10 10 21 26 22 25 33 38 38 31 17 10 14 17 11 6 9 11 8 7 8 7 7 9 11
9 11 12 11 8 7 9 10 10 15 18 15 12 14 17 15 12 12 11 10 12 12 11 11 9 6 9 11 9 14 25 25 18 15 16 14 10 9 8 8 10 12 11 12 11 9 8 8 6 7 12 13 13 14 11 8 9 8 5 9 10 8 13 20 23 28 35 37 38 41 33 16 7 10 10 9 11 8 7 15 21 15 9 8 10
13 12 9 6 8 13 16 15 16 19 17 14 15 17 16 13 14 14 11 10 12 11 10 12 8 4 9 12 9 11 21 23 15 10 11 13 9 4 3 5 7 11 11 11 12 10 8 9 9 7 9 13 14 13 11 7 6 6 5 4 7 7 8 13 18 25 35 39 38 41 42 33 21 14 6 3 6 6 4 11 16 12 8 10 12
7 9 9 10 13 17 17 16 16 18 17 17 17 16 15 14 14 12 11 12 13 12 12 11 7 6 12 15 9 7 15 25 23 12 8 12 9 1 0 3 6 9 11 10 10 10 9 10 11 8 7 11 12 9 7 5 3 4 4 4 4 5 5 7 11 16 26 36 40 40 40 36 33 32 24 14 10 7 5 6 5 2 2 4 3
8 13 15 15 15 16 16 15 16 18 19 18 15 14 16 17 14 13 13 12 12 13 13 10 9 9 12 14 10 5 10 22 27 18 10 9 7 3 3 5 6 9 12 11 9 10 10 10 10 9 7 7 9 7 5 4 3 3 3 3 4 5 5 5 6 9 15 23 31 40 44 37 28 28 33 34 26 15 7 6 7 9 12 13 9
15 15 15 17 17 16 15 14 16 18 17 17 16 16 16 15 13 13 13 12 13 13 12 11 13 13 13 14 12 8 8 13 19 20 19 14 8 5 7 9 9 9 10 10 10 10 10 9 9 9 7 5 6 7 5 4 4 4 4 4 4 4 5 6 5 6 9 11 14 23 39 47 38 26 24 29 31 25 17 12 8 5 6 9 13
14 12 14 16 15 12 11 12 17 19 17 16 18 16 14 13 13 12 12 12 13 15 15 15 15 14 14 15 13 12 13 13 11 15 23 26 22 14 8 7 9 9 7 8 9 9 9 9 7 8 9 7 5 5 5 5 5 4 4 5 4 3 4 5 5 5 5 8 8 8 18 35 44 40 32 28 28 28 26 23 22 18 8 -1 3
10 12 14 12 10 12 15 18 21 20 16 16 17 15 13 13 13 11 11 13 16 18 18 16 16 18 18 18 17 16 14 11 7 6 9 17 26 28 21 13 8 6 6 8 8 8 8 8 6 7 8 8 6 6 5 5 5 5 5 5 5 5 4 4 5 6 4 5 7 6 7 14 24 34 40 39 37 34 29 25 28 32 25 11 2
15 16 12 8 11 16 19 20 19 16 14 15 15 13 12 12 11 10 12 14 16 18 19 19 20 20 19 17 14 10 6 6 8 7 5 7 14 23 28 23 12 5 5 8 9 8 7 7 7 7 6 6 6 6 6 6 6 5 5 5 4 5 5 4 4 5 5 5 5 6 6 7 9 15 23 32 38 41 39 33 32 35 34 26 8
18 15 10 10 16 19 18 18 16 12 10 11 11 11 11 11 11 11 11 12 15 18 19 17 14 14 15 10 4 3 5 7 7 6 7 9 9 11 19 25 22 15 10 7 8 9 8 8 8 7 6 5 6 5 5 6 6 5 5 6 5 4 5 5 4 4 4 4 5 5 5 6 6 6 8 13 21 29 35 36 37 38 38 38 30
14 12 9 12 18 18 15 13 12 10 10 10 10 11 11 10 11 11 11 14 17 16 13 9 9 12 11 3 -3 0 8 10 9 8 8 9 11 11 11 15 21 21 15 10 9 9 9 9 10 9 7 6 6 6 6 5 5 5 5 5 5 5 5 5 4 5 5 4 4 5 5 5 6 6 6 5 6 12 19 26 31 35 38 41 43
10 11 10 13 17 17 15 12 11 10 11 11 11 11 11 12 13 14 15 16 17 16 17 17 14 8 2 -2 1 8 11 11 11 12 11 10 13 14 11 11 14 17 16 13 11 9 9 10 10 10 10 9 7 7 7 6 6 6 6 6 6 6 5 5 5 4 4 5 5 5 5 5 5 5 6 6 4 4 7 11 16 22 28 32 36
9 13 15 14 13 13 13 12 11 10 10 11 11 11 12 13 14 16 17 17 16 17 19 16 7 1 2 7 13 15 14 13 14 15 14 15 15 15 15 14 13 13 13 11 9 8 9 9 8 9 10 10 9 8 8 7 7 7 7 7 7 6 6 6 6 6 5 5 5 5 6 6 6 5 5 6 7 5 4 5 7 10 13 17 21
16 17 16 14 11 10 11 11 11 10 11 11 11 11 12 13 14 16 16 16 15 15 13 9 7 9 13 14 14 14 13 14 14 13 14 14 13 14 17 17 16 16 16 13 11 9 9 8 9 9 8 8 9 8 7 7 8 7 7 7 8 8 8 7 7 7 7 6 6 6 6 6 6 7 7 6 6 7 6 5 5 6 7 9 11
18 15 16 17 14 11 10 10 11 12 13 11 10 11 11 13 15 16 15 14 14 13 11 9 11 13 12 11 11 13 13 11 11 12 12 12 11 12 13 15 16 17 17 16 15 15 13 12 12 12 11 11 10 9 9 9 8 8 8 8 8 9 9 8 8 7 8 7 7 7 7 7 6 7 7 7 6 7 7 7 6 6 5 6 7
19 17 19 22 18 12 10 11 12 12 11 9 9 10 12 14 14 13 12 11 11 11 11 10 10 10 11 11 12 12 12 11 11 11 11 12 12 12 11 11 12 13 14 14 15 14 14 14 13 12 12 12 12 11 11 11 9 8 9 8 7 8 8 8 8 7 6 6 7 6 6 7 7 6 7 8 7 7 7 7 7 7 7 6 6
21 19 17 16 14 10 10 11 11 10 9 8 8 10 12 13 12 11 12 12 11 10 11 13 12 11 11 11 11 11 12 12 11 10 9 10 11 11 11 10 10 9 10 10 10 10 10 10 10 10 10 10 10 11 11 10 10 10 9 7 7 7 6 7 7 7 6 6 7 7 6 7 7 7 7 7 8 8 8 7 7 7 7 7 7
22 17 11 9 10 11 10 10 10 9 8 8 10 12 13 12 11 11 12 12 12 11 12 13 14 14 13 11 11 11 11 10 11 11 10 9 9 9 10 10 10 9 9 8 8 8 8 7 7 8 8 8 9 10 10 10 10 10 11 10 9 8 7 7 7 8 8 8 7 7 8 8 7 7 8 7 7 8 9 8 9 9 8 8 8
17 11 8 9 10 10 9 9 9 8 9 10 12 14 14 12 10 11 12 12 12 13 14 13 14 13 12 11 11 10 10 10 11 10 9 9 9 9 9 10 11 11 11 10 9 9 9 9 9 9 9 9 10 10 10 11 11 11 11 12 12 11 11 10 9 9 10 11 10 9 9 8 8 9 9 9 9 9 9 9 9 10 9 9 9
11 8 9 10 10 9 10 10 9 9 11 12 12 13 13 13 11 12 12 13 13 13 12 12 12 12 11 11 10 10 10 10 10 10 11 12 11 11 10 11 11 11 11 12 11 11 10 10 11 10 10 11 11 11 12 14 15 16 17 17 17 16 15 14 13 12 12 11 12 12 11 11 10 10 10 10 10 10 11 11 11 11 10 10 10
10 9 10 10 10 11 12 12 11 12 13 14 14 14 14 13 14 14 13 13 13 12 11 11 11 11 10 10 10 10 10 10 10 12 12 13 13 14 15 14 13 13 12 12 12 12 12 12 13 14 15 15 15 15 16 17 18 19 20 20 20 20 19 16 16 15 14 13 13 13 13 13 13 11 11 12 11 11 11 11 11 12 12 11 11
11 12 12 12 12 13 11 11 12 13 13 14 15 15 14 14 16 16 15 14 13 12 11 10 10 10 10 10 10 10 11 12 14 16 17 18 18 18 18 17 18 17 16 15 14 14 15 17 18 18 18 18 18 18 17 17 16 16 15 14 14 15 15 15 15 14 13 13 14 13 12 13 13 13 12 11 10 11 11 11 11 11 12 11 12
Height
5884 5882 5881 5881 5880 5879 5878 5876 5875 5873 5872 5870 5869 5867 5866 5865 5863 5861 5859 5857 5854 5852 5850 5847 5845 5842 5840 5837 5835 5832 5829 5826 5824 5822 5819 5816 5813 5810 5807 5804 5801 5799 5797 5795 5794 5792 5790 5787 5786 5784 5781 5780 5778 5776 5775 5773 5772 5772 5771 5770 5770 5769 5768 5767 5766 5772 5778 5777 5777 5779 5780 5780 5783 5785 5788 5793 5796 5798 5802 5807 5810 5812 5817 5821 5823
5880 5878 5877 5876 5876 5875 5874 5873 5872 5870 5868 5867 5865 5864 5862 5861 5860 5858 5856 5853 5851 5848 5846 5843 5841 5838 5835 5832 5830 5827 5824 5821 5818 5815 5813 5811 5808 5805 5801 5798 5795 5792 5790 5788 5787 5785 5784 5782 5780 5777 5775 5773 5771 5769 5768 5767 5765 5765 5764 5763 5764 5763 5761 5760 5759 5762 5769 5771 5770 5772 5775 5774 5776 5779 5781 5786 5790 5791 5795 5800 5803 5806 5810 5814 5818
5876 5873 5872 5872 5872 5872 5871 5870 5869 5867 5865 5863 5861 5860 5858 5857 5856 5855 5852 5850 5847 5845 5842 5839 5836 5833 5830 5828 5825 5822 5820 5816 5813 5810 5807 5805 5803 5800 5796 5793 5790 5787 5784 5782 5780 5779 5778 5776 5774 5771 5768 5766 5764 5763 5762 5760 5758 5757 5757 5756 5756 5757 5755 5753 5752 5754 5760 5764 5763 5764 5767 5767 5769 5773 5776 5779 5783 5785 5788 5793 5797 5801 5805 5808 5812
5872 5869 5868 5868 5868 5868 5867 5866 5865 5863 5861 5859 5857 5856 5854 5852 5851 5850 5848 5845 5842 5839 5837 5834 5831 5829 5826 5823 5820 5817 5815 5812 5808 5805 5802 5799 5797 5795 5791 5787 5784 5781 5778 5776 5774 5772 5771 5769 5767 5764 5762 5760 5758 5757 5755 5754 5752 5750 5749 5749 5749 5750 5749 5747 5746 5747 5750 5756 5757 5756 5759 5761 5762 5766 5770 5772 5776 5778 5782 5786 5791 5795 5799 5803 5807
5869 5867 5866 5866 5866 5864 5863 5862 5861 5859 5856 5854 5853 5851 5850 5848 5846 5844 5842 5840 5837 5835 5832 5830 5827 5825 5822 5818 5815 5812 5809 5807 5803 5800 5797 5794 5791 5789 5785 5782 5779 5775 5773 5770 5768 5766 5764 5762 5760 5758 5756 5754 5753 5751 5749 5748 5746 5743 5742 5742 5742 5742 5742 5741 5740 5740 5742 5747 5750 5750 5751 5754 5755 5759 5764 5766 5769 5771 5775 5779 5784 5789 5794 5797 5801
5864 5863 5863 5863 5863 5862 5860 5859 5856 5854 5852 5850 5848 5847 5845 5844 5842 5840 5838 5835 5833 5831 5828 5825 5822 5819 5817 5814 5811 5807 5804 5802 5798 5795 5792 5789 5785 5782 5779 5775 5772 5770 5767 5764 5762 5760 5758 5756 5754 5752 5750 5749 5747 5746 5744 5742 5740 5737 5735 5735 5735 5735 5735 5734 5734 5734 5735 5737 5742 5744 5745 5747 5749 5752 5757 5760 5762 5764 5768 5772 5777 5783 5788 5791 5796
5860 5859 5860 5860 5859 5859 5857 5855 5851 5849 5847 5845 5844 5843 5841 5839 5837 5835 5833 5830 5828 5825 5823 5821 5817 5814 5812 5809 5806 5802 5799 5797 5794 5790 5787 5785 5781 5777 5773 5769 5766 5764 5761 5759 5756 5754 5752 5750 5749 5747 5745 5744 5742 5740 5738 5736 5734 5731 5729 5728 5727 5728 5728 5727 5727 5727 5728 5729 5733 5736 5738 5740 5743 5746 5750 5753 5755 5758 5762 5766 5771 5777 5782 5786 5791
5857 5856 5855 5855 5855 5854 5852 5850 5847 5844 5842 5841 5840 5839 5837 5835 5833 5830 5828 5825 5823 5820 5818 5816 5813 5810 5807 5804 5801 5798 5794 5792 5789 5786 5783 5780 5777 5773 5769 5765 5761 5759 5756 5753 5751 5749 5747 5745 5743 5742 5740 5738 5737 5734 5732 5730 5727 5725 5723 5721 5720 5720 5720 5720 5720 5720 5721 5722 5725 5728 5731 5733 5737 5740 5744 5747 5750 5754 5757 5761 5766 5771 5776 5780 5785
5852 5851 5851 5851 5850 5849 5847 5844 5842 5840 5838 5837 5836 5834 5833 5831 5829 5826 5824 5821 5818 5816 5813 5810 5808 5805 5802 5799 5796 5793 5790 5787 5783 5781 5778 5775 5772 5768 5765 5761 5758 5755 5752 5749 5746 5744 5742 5740 5738 5736 5735 5733 5732 5729 5727 5724 5721 5718 5716 5714 5713 5713 5713 5713 5712 5712 5713 5715 5718 5721 5724 5727 5731 5733 5737 5741 5744 5748 5751 5754 5759 5765 5769 5773 5779
5848 5847 5847 5846 5846 5844 5841 5839 5837 5835 5834 5833 5831 5830 5828 5826 5824 5822 5819 5816 5813 5810 5808 5805 5803 5799 5797 5794 5791 5788 5785 5782 5778 5775 5772 5769 5766 5763 5759 5756 5754 5751 5749 5745 5743 5740 5737 5735 5734 5732 5730 5728 5727 5725 5722 5719 5715 5712 5709 5708 5706 5706 5706 5706 5705 5705 5706 5708 5711 5714 5717 5721 5725 5727 5731 5734 5737 5741 5744 5748 5753 5758 5762 5767 5772
5844 5843 5843 5843 5842 5840 5837 5834 5833 5831 5829 5828 5827 5825 5823 5822 5819 5817 5814 5811 5808 5805 5803 5800 5797 5794 5791 5788 5786 5783 5780 5777 5773 5770 5766 5762 5759 5756 5753 5750 5748 5746 5744 5742 5739 5736 5734 5731 5730 5728 5726 5724 5722 5720 5718 5714 5711 5708 5705 5702 5700 5699 5699 5699 5698 5698 5699 5701 5704 5707 5710 5715 5719 5721 5724 5727 5730 5735 5739 5743 5748 5753 5756 5761 5766
5842 5840 5839 5839 5838 5835 5832 5830 5828 5827 5825 5824 5822 5821 5819 5817 5814 5811 5809 5806 5803 5800 5797 5795 5792 5790 5787 5784 5781 5778 5776 5772 5769 5765 5761 5757 5753 5749 5747 5745 5743 5741 5740 5737 5735 5733 5730 5727 5726 5724 5722 5720 5717 5715 5713 5710 5706 5703 5700 5697 5695 5693 5691 5691 5691 5692 5693 5694 5697 5700 5703 5708 5712 5715 5718 5721 5724 5729 5733 5738 5743 5748 5752 5756 5761
5839 5837 5835 5834 5832 5828 5826 5825 5823 5822 5821 5820 5818 5817 5815 5812 5809 5806 5803 5801 5798 5795 5792 5789 5787 5784 5782 5779 5776 5773 5771 5768 5764 5760 5756 5752 5748 5745 5742 5740 5738 5737 5735 5734 5731 5729 5726 5724 5722 5720 5719 5716 5712 5710 5708 5705 5702 5699 5695 5692 5689 5687 5685 5684 5684 5686 5687 5688 5690 5694 5697 5700 5706 5710 5713 5715 5718 5723 5728 5733 5738 5743 5747 5752 5757
5835 5832 5830 5828 5826 5823 5821 5820 5819 5818 5817 5816 5814 5813 5811 5808 5804 5801 5798 5795 5792 5789 5787 5784 5781 5779 5777 5774 5771 5768 5765 5762 5758 5754 5750 5747 5743 5741 5738 5737 5735 5733 5731 5730 5728 5725 5723 5720 5718 5716 5715 5712 5708 5705 5703 5700 5696 5693 5690 5687 5684 5682 5679 5677 5677 5679 5681 5681 5684 5687 5690 5693 5699 5705 5707 5710 5713 5718 5723 5728 5734 5738 5742 5746 5751
5831 5828 5825 5822 5820 5819 5818 5817 5816 5815 5814 5812 5811 5808 5806 5803 5799 5796 5793 5790 5787 5784 5782 5779 5776 5774 5772 5769 5766 5763 5759 5756 5752 5749 5745 5742 5739 5736 5734 5733 5731 5729 5728 5726 5724 5721 5719 5717 5714 5713 5711 5708 5705 5702 5699 5696 5692 5688 5685 5682 5679 5676 5673 5670 5670 5671 5673 5675 5678 5681 5684 5688 5694 5699 5702 5705 5709 5713 5718 5723 5729 5734 5737 5740 5744
5826 5823 5819 5817 5816 5815 5814 5814 5813 5811 5810 5808 5806 5804 5801 5799 5794 5791 5788 5786 5783 5780 5777 5774 5771 5768 5766 5763 5760 5757 5753 5750 5746 5743 5740 5738 5735 5732 5731 5729 5727 5726 5724 5722 5720 5718 5716 5714 5712 5710 5708 5705 5702 5699 5695 5692 5688 5684 5680 5677 5674 5670 5667 5664 5664 5665 5667 5669 5672 5676 5680 5684 5689 5694 5698 5700 5704 5709 5713 5717 5723 5728 5731 5734 5737
5819 5816 5814 5813 5812 5812 5811 5811 5810 5808 5807 5804 5802 5799 5796 5793 5790 5786 5784 5781 5778 5776 5773 5770 5767 5764 5760 5757 5754 5751 5747 5744 5741 5738 5735 5733 5731 5729 5727 5726 5724 5722 5721 5719 5717 5715 5713 5711 5709 5707 5705 5703 5699 5695 5692 5689 5684 5680 5676 5673 5669 5665 5661 5659 5658 5659 5661 5664 5668 5671 5675 5679 5683 5689 5693 5696 5700 5704 5708 5712 5717 5721 5725 5729 5733
5814 5812 5810 5809 5809 5809 5808 5807 5806 5804 5803 5800 5797 5794 5791 5788 5785 5782 5779 5777 5774 5771 5768 5765 5763 5760 5756 5752 5748 5745 5742 5739 5737 5734 5731 5729 5727 5725 5723 5722 5720 5718 5717 5716 5713 5711 5710 5708 5706 5705 5703 5699 5696 5692 5689 5685 5681 5676 5672 5668 5665 5661 5657 5654 5654 5655 5657 5660 5663 5667 5670 5674 5678 5683 5688 5692 5695 5699 5703 5708 5713 5717 5721 5725 5729
5811 5810 5808 5807 5806 5805 5804 5803 5802 5800 5798 5795 5792 5790 5786 5783 5780 5777 5774 5772 5769 5767 5764 5761 5759 5756 5752 5748 5744 5740 5738 5735 5732 5729 5727 5725 5723 5721 5719 5718 5717 5715 5714 5712 5710 5708 5706 5705 5703 5702 5700 5697 5693 5689 5685 5682 5678 5673 5668 5664 5661 5657 5653 5650 5650 5652 5654 5656 5659 5662 5666 5669 5674 5678 5683 5687 5691 5695 5699 5704 5708 5712 5717 5721 5724
5809 5808 5806 5805 5803 5802 5800 5798 5797 5795 5793 5790 5787 5785 5781 5778 5774 5772 5770 5767 5764 5762 5759 5757 5754 5751 5746 5743 5740 5736 5733 5730 5727 5725 5723 5721 5718 5717 5716 5714 5713 5712 5710 5709 5707 5705 5703 5702 5700 5699 5697 5694 5690 5686 5682 5679 5675 5670 5665 5661 5657 5654 5650 5648 5648 5649 5650 5653 5656 5659 5662 5666 5670 5675 5679 5683 5687 5691 5696 5699 5703 5707 5712 5716 5720
5805 5804 5803 5801 5799 5797 5795 5793 5792 5790 5788 5785 5782 5780 5776 5772 5769 5767 5765 5762 5759 5757 5754 5752 5750 5746 5742 5739 5737 5733 5730 5726 5724 5721 5719 5717 5715 5713 5712 5711 5709 5709 5707 5705 5703 5702 5700 5698 5697 5695 5693 5691 5687 5684 5680 5676 5672 5667 5662 5659 5655 5651 5647 5646 5646 5646 5647 5650 5652 5655 5659 5663 5667 5671 5675 5679 5683 5688 5692 5695 5699 5703 5707 5712 5715
5799 5799 5798 5796 5794 5792 5790 5788 5786 5785 5782 5780 5777 5775 5772 5768 5764 5761 5759 5757 5754 5752 5750 5747 5746 5743 5738 5735 5732 5729 5726 5722 5719 5717 5716 5714 5712 5711 5709 5707 5706 5705 5704 5702 5700 5698 5696 5695 5694 5693 5691 5688 5685 5681 5678 5674 5670 5665 5661 5657 5653 5649 5646 5644 5643 5643 5645 5648 5650 5653 5656 5660 5664 5668 5671 5675 5679 5684 5688 5692 5696 5699 5704 5708 5710
5795 5794 5793 5790 5788 5786 5784 5783 5781 5779 5776 5774 5771 5769 5766 5763 5759 5755 5752 5750 5749 5747 5745 5742 5740 5739 5735 5731 5728 5725 5721 5717 5714 5713 5712 5710 5709 5708 5706 5704 5702 5701 5701 5699 5697 5695 5694 5693 5691 5690 5688 5685 5682 5679 5675 5672 5668 5664 5660 5655 5652 5648 5645 5642 5641 5642 5643 5646 5649 5651 5655 5658 5661 5665 5668 5672 5676 5680 5684 5688 5691 5695 5699 5703 5705
5791 5789 5787 5784 5783 5781 5779 5778 5776 5772 5769 5767 5765 5762 5760 5758 5755 5752 5749 5746 5744 5742 5739 5737 5735 5733 5730 5727 5724 5721 5718 5714 5711 5708 5707 5707 5706 5704 5703 5701 5699 5698 5697 5696 5694 5693 5691 5690 5689 5687 5685 5682 5680 5676 5673 5669 5666 5663 5659 5654 5650 5647 5644 5641 5640 5641 5642 5644 5647 5650 5652 5655 5658 5661 5665 5669 5672 5676 5679 5683 5686 5690 5693 5696 5699
5786 5784 5781 5779 5777 5775 5773 5771 5768 5765 5762 5760 5758 5756 5754 5752 5750 5747 5745 5742 5739 5736 5734 5732 5729 5727 5724 5722 5720 5717 5714 5711 5707 5705 5704 5703 5702 5700 5699 5698 5697 5695 5694 5693 5691 5690 5688 5687 5686 5684 5682 5680 5677 5674 5670 5667 5664 5661 5657 5653 5649 5646 5643 5640 5639 5639 5640 5642 5644 5647 5649 5651 5655 5658 5662 5665 5669 5672 5675 5678 5681 5684 5687 5691 5694
5780 5777 5775 5773 5770 5767 5765 5764 5761 5758 5756 5754 5752 5750 5749 5746 5744 5742 5739 5737 5734 5731 5729 5727 5725 5722 5719 5716 5714 5711 5708 5706 5703 5701 5700 5699 5698 5697 5696 5695 5693 5692 5691 5690 5688 5687 5686 5684 5683 5681 5679 5677 5675 5672 5668 5665 5663 5660 5656 5653 5648 5645 5642 5639 5637 5637 5639 5639 5640 5643 5645 5648 5651 5655 5658 5662 5665 5668 5672 5674 5677 5680 5683 5686 5690
5775 5773 5771 5769 5765 5762 5760 5759 5756 5753 5751 5750 5748 5746 5743 5740 5738 5736 5734 5732 5729 5727 5724 5722 5720 5718 5715 5712 5709 5706 5703 5701 5699 5697 5696 5695 5694 5694 5693 5691 5690 5689 5688 5687 5686 5684 5683 5682 5680 5679 5677 5675 5673 5670 5667 5664 5662 5659 5656 5652 5648 5644 5641 5638 5636 5635 5636 5636 5637 5639 5642 5645 5648 5652 5655 5658 5662 5665 5669 5671 5674 5677 5680 5683 5686
5771 5769 5766 5764 5761 5758 5756 5754 5751 5748 5746 5744 5742 5740 5737 5734 5732 5731 5729 5726 5724 5722 5720 5717 5715 5713 5711 5709 5705 5703 5700 5697 5695 5693 5692 5692 5691 5690 5689 5688 5687 5686 5686 5685 5683 5682 5680 5679 5678 5676 5674 5673 5670 5668 5665 5663 5661 5659 5656 5652 5649 5644 5641 5638 5636 5634 5634 5634 5634 5636 5639 5642 5646 5649 5652 5655 5659 5662 5665 5668 5671 5674 5677 5679 5682
5765 5763 5760 5757 5754 5752 5750 5747 5745 5743 5740 5737 5735 5734 5731 5728 5727 5725 5723 5721 5719 5717 5715 5713 5711 5709 5707 5705 5702 5699 5697 5694 5692 5690 5689 5688 5688 5687 5686 5686 5685 5684 5683 5683 5681 5679 5678 5677 5675 5673 5672 5670 5668 5666 5664 5662 5660 5658 5655 5652 5649 5645 5642 5639 5636 5634 5633 5633 5634 5635 5638 5641 5644 5647 5649 5652 5656 5659 5661 5664 5668 5670 5673 5675 5677
5757 5755 5753 5750 5748 5746 5743 5741 5739 5736 5734 5731 5730 5728 5726 5724 5722 5720 5718 5716 5714 5712 5710 5708 5706 5705 5703 5701 5698 5696 5693 5691 5689 5687 5686 5685 5684 5684 5683 5683 5682 5681 5681 5680 5679 5677 5675 5674 5673 5671 5669 5668 5666 5664 5662 5660 5659 5657 5655 5652 5649 5646 5642 5639 5637 5634 5633 5633 5634 5635 5637 5639 5642 5644 5647 5650 5653 5656 5658 5661 5664 5666 5668 5670 5673
5751 5749 5746 5744 5743 5740 5737 5736 5733 5730 5728 5725 5723 5722 5721 5719 5717 5715 5713 5712 5710 5708 5706 5704 5702 5700 5699 5697 5695 5692 5690 5688 5686 5685 5684 5683 5682 5681 5681 5680 5679 5678 5677 5677 5676 5674 5673 5672 5670 5669 5667 5666 5665 5663 5661 5659 5658 5657 5655 5652 5649 5646 5643 5640 5637 5635 5633 5633 5633 5634 5635 5638 5640 5643 5645 5648 5650 5653 5655 5657 5660 5662 5664 5667 5670
5745 5743 5740 5739 5737 5735 5732 5729 5727 5724 5721 5719 5717 5716 5714 5714 5712 5710 5708 5707 5705 5703 5701 5699 5697 5696 5695 5693 5691 5689 5687 5685 5684 5683 5682 5681 5680 5679 5678 5677 5676 5675 5675 5674 5673 5671 5670 5669 5668 5667 5665 5664 5663 5662 5660 5658 5657 5656 5654 5652 5650 5647 5643 5641 5638 5636 5635 5633 5633 5633 5634 5635 5638 5641 5644 5646 5648 5649 5651 5654 5656 5658 5661 5664 5667
5739 5736 5734 5732 5731 5729 5726 5723 5720 5717 5715 5713 5712 5709 5708 5707 5706 5705 5703 5701 5700 5698 5697 5695 5693 5692 5690 5689 5688 5686 5684 5682 5681 5680 5679 5679 5678 5677 5676 5675 5674 5673 5672 5671 5670 5669 5668 5667 5666 5665 5663 5662 5661 5660 5659 5657 5656 5655 5653 5652 5650 5647 5645 5642 5640 5638 5636 5634 5633 5632 5632 5633 5635 5637 5640 5642 5644 5646 5648 5650 5652 5654 5657 5660 5663
5732 5730 5728 5725 5723 5722 5720 5717 5713 5712 5710 5708 5705 5704 5702 5700 5699 5699 5698 5697 5695 5693 5692 5690 5689 5687 5686 5684 5683 5682 5681 5679 5678 5677 5676 5675 5675 5674 5673 5672 5671 5670 5669 5668 5667 5667 5666 5665 5664 5663 5661 5660 5659 5659 5658 5656 5655 5654 5652 5651 5650 5648 5646 5643 5641 5639 5637 5635 5633 5632 5632 5632 5633 5634 5636 5638 5640 5642 5644 5647 5648 5651 5654 5656 5659
5726 5724 5722 5719 5717 5715 5713 5710 5708 5706 5704 5702 5700 5698 5697 5696 5694 5693 5693 5692 5690 5689 5687 5685 5684 5683 5681 5680 5679 5678 5677 5676 5674 5673 5672 5672 5671 5671 5670 5669 5668 5668 5666 5665 5665 5664 5663 5663 5662 5661 5659 5658 5657 5657 5656 5655 5654 5653 5651 5650 5649 5648 5646 5644 5642 5640 5638 5636 5635 5633 5632 5631 5632 5632 5633 5634 5636 5638 5640 5642 5645 5648 5650 5652 5654
5720 5717 5715 5714 5711 5709 5706 5704 5702 5700 5698 5696 5695 5694 5693 5692 5690 5689 5688 5687 5685 5684 5683 5681 5680 5679 5677 5676 5675 5675 5673 5672 5671 5670 5669 5668 5668 5667 5666 5666 5665 5664 5663 5662 5661 5661 5660 5660 5659 5658 5657 5656 5655 5654 5654 5653 5653 5652 5650 5649 5648 5647 5646 5645 5643 5641 5639 5637 5636 5635 5633 5632 5632 5632 5632 5633 5634 5635 5637 5638 5640 5643 5646 5649 5651
5714 5711 5709 5708 5706 5703 5701 5698 5696 5695 5693 5691 5690 5689 5689 5687 5686 5684 5683 5682 5681 5679 5678 5677 5675 5674 5673 5672 5672 5671 5670 5669 5668 5667 5666 5665 5664 5663 5663 5662 5662 5661 5660 5659 5658 5658 5657 5657 5656 5656 5655 5654 5653 5652 5652 5651 5651 5650 5649 5648 5647 5646 5645 5644 5643 5642 5640 5638 5637 5636 5635 5634 5633 5632 5632 5632 5632 5633 5634 5635 5637 5639 5641 5644 5647
5708 5706 5703 5701 5699 5697 5695 5693 5691 5689 5688 5687 5686 5685 5684 5683 5681 5680 5679 5678 5676 5675 5673 5672 5671 5670 5669 5668 5668 5667 5667 5666 5665 5663 5663 5662 5661 5660 5659 5659 5658 5658 5657 5656 5655 5654 5654 5654 5653 5653 5652 5652 5651 5650 5649 5649 5648 5648 5647 5646 5645 5644 5643 5643 5642 5641 5640 5639 5638 5637 5636 5635 5634 5633 5633 5632 5632 5631 5632 5633 5634 5635 5637 5639 5642
5702 5700 5697 5695 5694 5692 5690 5688 5686 5685 5683 5682 5681 5680 5679 5678 5677 5676 5675 5673 5672 5671 5669 5668 5667 5667 5666 5665 5665 5664 5663 5662 5661 5660 5659 5658 5657 5657 5656 5655 5654 5654 5653 5652 5652 5651 5650 5650 5650 5650 5649 5648 5648 5647 5647 5646 5646 5645 5645 5644 5644 5643 5642 5641 5641 5640 5640 5639 5638 5637 5636 5636 5635 5634 5633 5633 5632 5632 5631 5631 5632 5632 5634 5636 5638
5697 5695 5691 5689 5688 5687 5685 5683 5682 5680 5678 5677 5676 5675 5674 5674 5673 5672 5670 5669 5668 5667 5666 5665 5664 5663 5662 5662 5662 5661 5660 5659 5658 5657 5655 5654 5653 5653 5652 5651 5650 5650 5650 5649 5648 5648 5647 5647 5646 5646 5646 5645 5645 5644 5644 5644 5643 5643 5642 5642 5642 5641 5640 5640 5639 5638 5638 5638 5638 5637 5636 5635 5635 5635 5634 5634 5633 5633 5632 5632 5631 5631 5632 5633 5635
5691 5689 5686 5684 5683 5682 5680 5679 5677 5676 5674 5673 5672 5671 5670 5669 5668 5667 5666 5664 5663 5662 5662 5661 5659 5658 5658 5658 5657 5656 5655 5654 5653 5652 5651 5650 5649 5649 5648 5647 5646 5646 5646 5645 5645 5644 5643 5643 5643 5642 5642 5642 5642 5641 5641 5641 5640 5640 5640 5639 5639 5639 5638 5638 5637 5637 5637 5636 5636 5636 5635 5635 5635 5634 5634 5634 5634 5633 5633 5632 5632 5631 5632 5632 5633
5684 5683 5680 5678 5677 5676 5675 5674 5672 5671 5669 5668 5667 5666 5665 5664 5663 5662 5661 5660 5659 5658 5657 5656 5655 5654 5654 5653 5652 5652 5651 5650 5649 5648 5647 5646 5645 5645 5644 5644 5643 5643 5642 5642 5641 5641 5640 5640 5639 5639 5639 5639 5638 5638 5638 5637 5637 5637 5637 5636 5636 5636 5636 5636 5635 5635 5634 5634 5634 5634 5634 5634 5633 5633 5633 5633 5633 5633 5633 5633 5632 5632 5632 5632 5632
5677 5676 5674 5673 5671 5670 5669 5668 5667 5665 5664 5663 5662 5661 5660 5659 5659 5657 5656 5655 5654 5654 5653 5652 5651 5650 5650 5649 5648 5648 5647 5646 5645 5644 5644 5643 5642 5641 5641 5640 5639 5639 5639 5638 5638 5637 5637 5636 5636 5636 5636 5636 5635 5635 5634 5634 5634 5633 5633 5633 5633 5633 5633 5633 5633 5632 5632 5632 5632 5631 5631 5631 5632 5632 5632 5632 5632 5632 5632 5632 5632 5632 5631 5631 5632
5670 5669 5668 5666 5665 5664 5663 5663 5661 5660 5659 5658 5657 5656 5656 5655 5654 5653 5651 5650 5650 5649 5649 5648 5648 5647 5645 5644 5644 5643 5643 5642 5641 5640 5639 5639 5638 5637 5637 5636 5636 5635 5635 5634 5634 5633 5633 5633 5633 5632 5632 5632 5632 5631 5631 5630 5630 5630 5630 5630 5630 5630 5630 5630 5630 5630 5629 5629 5629 5629 5629 5629 5629 5629 5629 5630 5630 5630 5630 5630 5631 5631 5631 5631 5631
5664 5663 5662 5660 5659 5658 5658 5657 5656 5655 5654 5653 5652 5651 5651 5650 5649 5648 5647 5646 5645 5645 5644 5643 5643 5643 5641 5640 5639 5638 5638 5637 5636 5635 5635 5634 5634 5633 5633 5632 5632 5631 5631 5630 5630 5630 5629 5629 5629 5628 5628 5628 5628 5627 5627 5627 5626 5626 5626 5626 5626 5626 5626 5626 5626 5626 5626 5626 5626 5626 5626 5626 5626 5626 5627 5627 5627 5627 5628 5628 5629 5629 5629 5629 5629
5658 5657 5656 5655 5653 5653 5652 5651 5651 5650 5649 5647 5646 5646 5646 5645 5644 5643 5642 5641 5640 5640 5639 5638 5638 5637 5636 5635 5634 5634 5633 5632 5632 5631 5630 5630 5629 5629 5629 5628 5628 5627 5627 5626 5626 5625 5625 5625 5624 5624 5624 5624 5624 5623 5623 5623 5623 5622 5622 5622 5621 5621 5622 5622 5622 5622 5622 5622 5622 5622 5623 5623 5623 5623 5624 5624 5624 5625 5625 5625 5626 5626 5627 5627 5627
5652 5651 5650 5649 5648 5648 5647 5646 5645 5644 5643 5642 5642 5642 5641 5640 5639 5639 5638 5636 5635 5635 5634 5633 5633 5632 5631 5630 5629 5629 5628 5627 5627 5626 5625 5625 5624 5624 5624 5624 5623 5623 5622 5622 5621 5621 5621 5620 5620 5620 5619 5619 5619 5619 5619 5619 5619 5619 5618 5618 5617 5617 5617 5617 5617 5618 5618 5618 5618 5618 5618 5619 5619 5620 5620 5620 5621 5621 5622 5622 5623 5623 5624 5624 5625
5647 5646 5645 5644 5643 5642 5641 5641 5640 5639 5638 5637 5637 5637 5636 5635 5634 5634 5633 5632 5631 5630 5629 5628 5628 5627 5627 5626 5625 5624 5623 5623 5622 5621 5621 5620 5620 5619 5619 5619 5619 5618 5618 5617 5617 5616 5616 5616 5615 5615 5615 5614 5614 5614 5614 5614 5614 5614 5614 5613 5613 5613 5613 5613 5613 5613 5613 5613 5614 5614 5614 5614 5614 5615 5616 5616 5617 5617 5617 5618 5619 5620 5620 5621 5621
5641 5640 5639 5639 5638 5637 5636 5635 5635 5634 5633 5632 5632 5631 5631 5629 5629 5629 5628 5627 5626 5626 5625 5624 5623 5623 5622 5621 5620 5620 5619 5618 5617 5616 5616 5615 5615 5615 5614 5614 5613 5613 5613 5613 5612 5612 5611 5611 5611 5610 5610 5609 5609 5609 5609 5609 5609 5609 5609 5609 5609 5608 5608 5608 5608 5608 5608 5608 5609 5609 5609 5609 5609 5609 5610 5611 5612 5612 5613 5613 5614 5615 5616 5617 5617
5636 5635 5634 5633 5632 5631 5630 5630 5629 5628 5628 5627 5626 5626 5625 5624 5623 5623 5623 5622 5621 5621 5620 5620 5619 5618 5617 5617 5616 5615 5614 5613 5612 5612 5611 5610 5610 5609 5609 5608 5608 5608 5607 5607 5607 5607 5606 5606 5606 5605 5605 5604 5604 5604 5604 5604 5603 5603 5603 5603 5603 5603 5603 5603 5603 5603 5603 5603 5603 5604 5604 5604 5605 5605 5605 5605 5606 5607 5608 5608 5609 5610 5611 5612 5612
5630 5630 5629 5628 5627 5626 5625 5625 5624 5623 5623 5622 5621 5620 5620 5619 5619 5618 5618 5617 5617 5616 5615 5615 5615 5614 5613 5612 5611 5610 5609 5608 5607 5606 5606 5605 5604 5604 5603 5603 5602 5602 5602 5602 5601 5601 5601 5601 5601 5601 5600 5600 5599 5599 5599 5599 5598 5598 5598 5598 5598 5598 5598 5598 5598 5598 5598 5598 5598 5599 5599 5599 5600 5600 5600 5600 5601 5601 5602 5603 5604 5604 5605 5606 5607